{"data":{"norad_id":56027,"intl_designator":"2023-042AT","name":"STARLINK-5777","alt_names":[],"object_type":"PAYLOAD","status":"ACTIVE","operator":null,"country":"US","launch_date":"2023-03-24","launch_site_code":"AFETR","launch_vehicle":null,"mission":null,"orbit_class":"UNKNOWN","rcs_meters":null,"size_class":null,"mass_kg":null,"dimensions":null,"purposes":["comms"],"wikipedia_slug":null,"has_3d_model":false,"image_url":null,"decayed_at":null,"tle_current":{"epoch":"2026-09-20T08:50:20.519520Z","epoch_age_seconds":117581,"freshness":"FRESH","line1":"1 56027U 23042AT  26263.36829305 -.00000155  00000+0  38823-5 0  9996","line2":"2 56027  43.0030  25.3932 0001247 268.3564  91.7145 15.27573155192813","mean_motion":15.27573155,"eccentricity":0.0001247,"inclination_deg":43.003,"raan_deg":25.3932,"arg_perigee_deg":268.3564,"mean_anomaly_deg":91.7145,"bstar":3.8823e-6,"rev_number":19281,"period_min":94.26717111954,"perigee_km":482.21400004658,"apogee_km":483.92518497075,"semimajor_km":6861.2065925087,"source":"CELESTRAK","updated_at":"2026-09-21T09:00:33.358090Z"}}}